Regional Weather Roundup
Issued by NWS

Home | Current Version | Previous Version | Text Only | Print | Product List | Glossary On
Versions: 1 2 3 4 5 6 7 8 9 10 11 12 13 14 15 16 17 18 19 20 21 22 23 24 25 26 27 28 29 30 31 32 33 34 35 36 37 38 39 40 41 42 43 44 45 46 47 48 49 50
000
ASUS43 KDMX 200607
RWRIA

WEATHER ROUNDUP FOR IOWA
NATIONAL WEATHER SERVICE DES MOINES IA
100 AM CDT WED AUG 20 2014

NOTE: "FAIR" INDICATES FEW OR NO CLOUDS BELOW 12,000 FEET WITH NO
SIGNIFICANT WEATHER AND/OR OBSTRUCTIONS TO VISIBILITY.

* - THESE STATIONS ARE NOT NWS STATIONS...THUS NOT UNDER NWS
QUALITY CONTROL.  THEY ALSO DO NOT REPORT WEATHER SUCH
AS PRECIPITATION OR FOG.

IAZ001>003-012>014-020>022-031>034-043>046-200700-
   NORTHWEST IOWA

CITY           SKY/WX    TMP DP  RH WIND       PRES   REMARKS
CARROLL *      PTCLDY    63  63 100 CALM      29.83S
CHEROKEE *       N/A     65  65 100 CALM      29.83S
DENISON *      CLEAR     66  66 100 CALM      29.82R FOG
LE MARS *      CLEAR     66  64  94 CALM      29.82S
ORANGE CITY *  CLEAR     70  63  78 E5        29.83S
SHELDON *      CLEAR     63  63 100 CALM      29.83R
SIOUX CITY       N/A     69  65  86 SE5       29.81R
6HR MIN TEMP:  69; 6HR MAX TEMP:  83;

SPENCER          N/A     64  62  93 CALM      29.84R
6HR MIN TEMP:  64; 6HR MAX TEMP:  79;

STORM LAKE *   CLEAR     66  66 100 CALM      29.84S
$$

IAZ055>058-069>071-079>083-090>094-200700-
   SOUTHWEST IOWA

CITY           SKY/WX    TMP DP  RH WIND       PRES   REMARKS
ATLANTIC *     CLEAR     68  66  94 N3        29.83R
AUDUBON *      CLEAR     66  64  94 CALM      29.85R
CLARINDA *     MOCLDY    72  70  94 CALM      29.84R
COUNCIL BLFS * CLEAR     72  68  88 MISG      29.82R
CRESTON *      CLEAR     68  66  94 SE6       29.85R
HARLAN  *      CLEAR     66  66 100 CALM      29.87R
LAMONI           N/A     73  67  81 SE3       29.84S
6HR MIN TEMP:  73; 6HR MAX TEMP:  84;

RED OAK *      MOCLDY    73  68  83 CALM      29.82S
SHENANDOAH *   PTCLDY    73  70  88 E3        29.82R
$$

IAZ047>049-059>061-072>074-084-200700-
   CENTRAL IOWA

CITY           SKY/WX    TMP DP  RH WIND       PRES   REMARKS
AMES             N/A     63  62  97 CALM      29.83S
6HR MIN TEMP:  63; 6HR MAX TEMP:  80;

ANKENY *       CLEAR     66  64  94 NE3       29.82F
CHARITON *     CLEAR     70  66  88 S7        29.84S
DES MOINES       N/A     73  66  78 SE3       29.82S
6HR MIN TEMP:  72; 6HR MAX TEMP:  84;

GRINNELL*        N/A     68  63  83 CALM      29.85S
KNOXVILLE *    PTCLDY    68  64  88 S3        29.82S
MARSHALLTOWN     N/A     65  62  90 CALM      29.83S
6HR MIN TEMP:  65; 6HR MAX TEMP:  79;

PELLA *          N/A     67  66  96 E3        29.83F
PERRY *          N/A     66  66 100 CALM      29.83S
$$

IAZ004>006-015-016-023>025-035-036-200700-
   NORTH CENTRAL IOWA

CITY           SKY/WX    TMP DP  RH WIND       PRES   REMARKS
ALGONA *       CLEAR     66  64  94 SW5       29.84S
CLARION *      CLEAR     63  63 100 S5        29.83S
ESTHERVILLE      N/A     64  63  96 CALM      29.84R
6HR MIN TEMP:  64; 6HR MAX TEMP:  79;

FORT DODGE *     N/A     63  63 100 CALM      29.84S
MASON CITY       N/A     66  63  90 W7        29.84S
6HR MIN TEMP:  65; 6HR MAX TEMP:  79;

FOREST CITY *  CLEAR     63  63 100 CALM      29.83S FOG
IOWA FALLS *     N/A     65  62  90 SW3       29.84F
$$

IAZ007>011-017>019-026>030-037>042-050>054-066-200700-
   NORTHEAST IOWA

CITY           SKY/WX    TMP DP  RH WIND       PRES   REMARKS
CEDAR RAPIDS     N/A     63  63 100 S5        29.83R
6HR MIN TEMP:  63; 6HR MAX TEMP:  80;

CHARLES CITY * CLEAR     64  64 100 SW3       29.83S
CLINTON *        N/A     63  61  94 W6        29.84S
DECORAH *      CLEAR     66  64  94 CALM      29.81S
DUBUQUE        MOCLDY    63  61  93 SW3       29.83R
6HR MIN TEMP:  63; 6HR MAX TEMP:  77;

MONTICELLO *   CLEAR     63  61  94 CALM      29.82S
OELWEIN *      PTCLDY    66  64  94 SW5       29.83S
WATERLOO         N/A     68  64  87 W5        29.81S
6HR MIN TEMP:  68; 6HR MAX TEMP:  80;

$$

IAZ064-065-067-068-078-200700-
   EAST CENTRAL IOWA

CITY           SKY/WX    TMP DP  RH WIND       PRES   REMARKS
DAVENPORT        N/A     62  59  90 CALM      29.83S
6HR MIN TEMP:  61; 6HR MAX TEMP:  80;

IOWA CITY        N/A     66  64  93 CALM      29.84R
6HR MIN TEMP:  64; 6HR MAX TEMP:  82;

MT. PLEASANT *   N/A     65  63  95 S6        29.85R
MUSCATINE *    CLEAR     66  63  88 CALM      29.83S
QUAD CITIES      N/A     66  63  90 CALM      29.82S
6HR MIN TEMP:  65; 6HR MAX TEMP:  83;

$$

IAZ062-063-075>077-085>089-095>099-200700-
   SOUTHEAST IOWA

CITY           SKY/WX    TMP DP  RH WIND       PRES   REMARKS
BURLINGTON       N/A     66  65  96 CALM      29.84S
6HR MIN TEMP:  66; 6HR MAX TEMP:  81;

FAIRFIELD *    CLEAR     64  63  94 CALM      29.84S
FORT MADISON * PTCLDY    72  70  94 CALM      29.85S
KEOKUK *       CLEAR     70  68  94 CALM      29.83F
OSKALOOSA *      N/A     66  64  93 CALM      29.84S
CENTERVILLE *  CLEAR     66  66 100 CALM      29.86S
OTTUMWA          N/A     66  64  93 E3        29.83S
6HR MIN TEMP:  65; 6HR MAX TEMP:  81;

WASHINGTON *   CLEAR     64  64 100 CALM      29.84S
$$

ABBREVIATIONS USED IN REMARKS
   TC - TEMPERATURES IN CELSIUS
  WCI - WIND CHILL INDEX
   HX - HEAT INDEX
  VSB - VISIBILITY
$$




USA.gov is the U.S. government's official web portal to all federal, state and local government web resources and services.